Voltar ao catálogo

FENGYUN 1C DEB

AtivoPO
NORAD 30008·DEBRIS·🇨🇳 China

Lançado May 10, 1999 de Taiyuan Satellite Launch Center

Loading…

Próximas Passagens (próximas 24 horas)

TLE

AtualizadoSource: Space-Track

Época: Sep 14, 2026, 12:01 UTC

1 30008U 99025MH  26257.50120222  .00007577  00000-0  11957-2 0  9993
2 30008  99.3836 259.6285 0037427  70.9472  81.1849 14.72272360 31111

Acompanhe FENGYUN 1C DEB em tempo real com AllMySat

Download on the App Store